Location: DaVinci Observatory
(43.1080°N, 78.6453°W)
Time: 03:40:56
(UTC-04:00)

Vanguard 2 Rocket - All Passes

Search period start: 18 June 2018 00:00
Search period end: 28 June 2018 00:00
Orbit: 553 x 3327 km, 32.9° (Epoch: 16 June)

Date Brightness Start Highest point End Pass type
(mag) Time Alt. Az. Time Alt. Az. Time Alt. Az.
18 Jun - 09:21:46 10° S 09:34:09 20° SE 09:45:32 10° E daylight
18 Jun - 11:32:08 10° SW 11:49:55 41° SSE 12:03:22 10° E daylight
18 Jun - 13:48:20 10° WSW 14:06:04 54° S 14:17:10 10° ESE daylight
18 Jun - 16:06:54 10° W 16:20:54 46° SSW 16:29:08 10° SE daylight
18 Jun - 18:26:30 10° W 18:33:20 19° SW 18:38:17 10° S daylight
19 Jun - 08:25:37 10° SSE 08:33:22 13° SE 08:40:58 10° ESE daylight
19 Jun - 10:31:43 10° SSW 10:48:40 35° SSE 11:02:50 10° E daylight
19 Jun - 12:46:22 10° WSW 13:05:01 53° S 13:17:42 10° E daylight
19 Jun - 15:04:24 10° W 15:20:42 53° S 15:30:25 10° ESE daylight
19 Jun - 17:23:38 10° W 17:34:12 30° SW 17:40:58 10° SSE daylight
20 Jun - 09:32:12 10° SSW 09:47:30 28° SE 10:01:32 10° E daylight
20 Jun - 11:44:53 10° SW 12:03:42 49° SSE 12:17:50 10° E daylight
20 Jun - 14:01:59 10° WSW 14:20:01 57° S 14:31:21 10° ESE daylight
20 Jun - 16:20:59 10° W 16:34:37 40° SSW 16:42:54 10° SE daylight
20 Jun - 18:42:29 10° WSW 18:46:33 13° SW 18:49:56 10° SSW daylight
21 Jun - 08:33:54 10° S 08:46:32 21° SE 08:59:02 10° E daylight
21 Jun - 10:44:01 10° SW 11:02:15 44° SSE 11:17:30 10° E daylight
21 Jun - 12:59:49 10° WSW 13:18:56 57° S 13:31:56 10° ESE daylight
21 Jun - 15:18:21 10° W 15:34:31 49° SSW 15:44:21 10° SE daylight
21 Jun - 17:38:20 10° W 17:47:32 23° SW 17:53:55 10° S daylight
22 Jun - 07:37:51 10° SSE 07:45:54 14° SE 07:54:10 10° ESE daylight
22 Jun - 09:43:56 10° SSW 10:00:52 37° SSE 10:16:34 10° E daylight
22 Jun - 11:58:05 10° WSW 12:17:31 55° SSE 12:32:08 10° E daylight
22 Jun - 14:15:49 10° W 14:33:56 56° S 14:45:25 10° ESE daylight
22 Jun - 16:35:14 10° W 16:48:07 33° SW 16:56:20 10° SSE daylight
23 Jun - 08:44:44 10° SSW 08:59:42 30° SE 09:14:49 10° E daylight
23 Jun - 10:56:55 10° SW 11:15:54 51° SSE 11:31:53 10° E daylight
23 Jun - 13:13:31 10° WSW 13:32:50 59° S 13:46:03 10° ESE daylight
23 Jun - 15:32:25 10° W 15:48:11 43° SSW 15:58:05 10° SE daylight
23 Jun - 17:53:52 10° W 18:00:38 16° SW 18:05:54 10° SSW daylight
24 Jun - 07:46:43 10° S 07:58:52 22° SE 08:11:52 10° E daylight
24 Jun - 09:56:26 10° SW 10:14:18 45° SSE 10:31:07 10° E daylight
24 Jun - 12:11:37 10° WSW 12:31:21 59° S 12:46:18 10° ESE daylight
24 Jun - 14:29:46 10° W 14:47:42 52° SSW 14:59:18 10° SE daylight
24 Jun - 16:49:51 10° W 17:01:22 26° SW 17:09:16 10° S daylight
25 Jun - 06:50:57 10° SSE 06:58:27 14° SE 07:06:31 10° ESE daylight
25 Jun - 08:56:42 10° SSW 09:12:55 38° SSE 09:29:44 10° E daylight
25 Jun - 11:10:14 10° WSW 11:29:38 57° SSE 11:46:07 10° E daylight
25 Jun - 13:27:23 10° W 13:46:41 58° S 14:00:04 10° ESE daylight
25 Jun - 15:46:38 10° W 16:01:36 36° SW 16:11:28 10° SSE daylight
26 Jun - 07:57:51 10° SSW 08:11:52 30° SE 08:27:31 10° E daylight
26 Jun - 10:09:29 10° SW 10:27:51 52° SSE 10:45:25 10° E daylight
26 Jun - 12:25:23 10° WSW 12:45:12 61° S 13:00:23 10° ESE daylight
26 Jun - 14:43:50 10° W 15:01:18 46° SSW 15:12:57 10° SE daylight
26 Jun - 17:05:10 10° W 17:14:23 19° SW 17:21:21 10° S daylight
27 Jun - 07:00:09 10° S 07:11:17 21° SE 07:24:06 10° E daylight
27 Jun - 09:09:23 10° SW 09:26:15 46° SSE 09:44:12 10° E daylight
27 Jun - 11:23:52 10° WSW 11:43:25 61° S 12:00:13 10° ESE daylight
27 Jun - 13:41:21 10° W 14:00:24 54° SSW 14:13:53 10° SE daylight
27 Jun - 16:01:12 10° W 16:14:47 29° SW 16:24:19 10° SSE daylight
